Showing default

CO3D1, 64903

Orbit data source: Space-Track

CO3D1, 64903 is a payload satellite owned by CNES (FR) in SSO that was launched on Sat, 26 Jul 2025 UTC via a VEGA C launch vehicle from the French Guiana (FRGUI). Payload-class satellites include a variety of spacecraft equipped with specific instruments for various scientific and technological missions. These include communications satellites like Starlink; space stations such as the ISS; scientific satellites like the Hubble; Earth observation satellites from companies like Planet Labs, Umbra, and HawkEye 360; GPS; miniature CubeSats for education and research; and military/defense satellites.

Loading next visibility...
Identifier
64903, 2025-156E
Orbit
SSO
Country
Flag of FRFR
Related business
Manufacturer
Airbus/Toulouse
Mission
Operational spacecraft
Bus & Motor
ASTROBUS-SE, Unknown motor
Mass
285 kg wet, 285 kg dry
Launch date (UTC)
2025-07-26 (1 month ago)
Launch vehicle
VEGA C
Launch site
French Guiana (FRGUI)
Object type
Payload
Rocket body
Debris
Shape & HBR
Unknown
Radar Cross Section
Large (>1 m²)

Expand to show TLE details & history
Last TLE update: 21 hours ago

TLE from 21 hours ago
0 CO3D1
1 64903U 25156E   25242.15205356  .00007887  00000-0  36702-3 0  9994
2 64903  97.4327 319.9248 0001347  86.9956 273.1433 15.20208259  5316
Epoch: 2025-08-30T03:38Z
TLE epoch observation values (Epoch: 2025-08-30T03:38:57.427Z)
Latitude
-0.00006°
Longitude
-73.40493°
Altitude
508.251 km
Speed
7.61 km/s
True Right ascension
21h 19m 41s
True Declination
0° 00' 00"
Sunlit
Object was in full shadow at epoch
Visualization orbit readout
Latitude
Unknown
Longitude
Unknown
Altitude
Unknown
Speed
Unknown
Apparent Right ascension
Unknown
Apparent Declination
Unknown
Sunlit
N/A
Visualization observer readout
Local Sidereal Time
16:11:41
Azimuth
Unknown
Elevation
Unknown
Doppler factor
Unknown
Orbital elements
Apogee altitude
503.105 km
Perigee altitude
501.252 km
Semi-major axis
6,880.316 km
Eccentricity
0.00013
Inclination
97.4327°
RAAN
319.9248°
Arg. of periapsis
86.9956°
True anomaly
273.12789°
Mean anomaly
273.1433°
Eccentric anomaly
273.13559°
Mean motion
3.80304 °/min
Orbital period
94.66 mins
BSTAR
0.00036702
Loading maneuver chart data...
Computing Atmospheric mass density...
Loading historical data...
Loading historical data...
Loading historical data...
Loading historical data...
Loading historical data...
Loading historical data...
Loading historical data...
Other satellites on launch #156 in the year 2025 (2025-07-26 UTC)

Documentation

Showing up to 5 results
|